Tracking 26303 objects as of 1-Dec-2022
HD Live streaming from Space Station
objects crossing your sky now

COSMOS 1408 DEB

Track COSMOS 1408 DEB now!
10-day predictions


NORAD ID: 50746
Int'l Code: 1982-092ARW
Perigee: 354.2 km
Apogee: 380.2 km
Inclination: 82.6 °
Period: 91.7 minutes
Semi major axis: 6738 km
RCS: Unknown
Launch date: September 16, 1982
Source: Commonwealth of Independent States (former USSR) (CIS)
Launch site: PLESETSK MISSILE AND SPACE COMPLEX (PKMTR)

Note: This is SATELLITE DEBRIS
aabbcc
Your satellite tracking list
Your tracking list is empty




NASA's NSSDC Master Catalog

Two Line Element Set (TLE):
1 50746U 82092ARW 22335.09391568  .00245661  00000-0  20074-2 0  9998
2 50746  82.5675  97.3460 0019310 227.1130 132.8511 15.69593468 52077
Source of the keplerian elements: AFSPC